Regional Weather Roundup
Issued by NWS

Home | Current Version | Previous Version | Graphics & Text | Print | Product List | Glossary On
Versions: 1 2 3 4 5 6 7 8 9 10 11 12 13 14 15 16 17 18 19 20 21 22 23 24 25 26 27 28 29 30 31 32 33 34 35 36 37 38 39 40 41 42 43 44 45 46 47 48 49 50
000
ASUS43 KMPX 271601
RWRMN
WEATHER ROUNDUP FOR MINNESOTA
NATIONAL WEATHER SERVICE TWIN CITIES/CHANHASSEN MN
1100 AM CDT TUE SEP 27 2016


NOTE: "FAIR" INDICATES FEW OR NO CLOUDS BELOW 12,000 FEET WITH NO
SIGNIFICANT WEATHER AND/OR OBSTRUCTIONS TO VISIBILITY. N/A MEANS
CURRENT SKY AND/OR WEATHER CONDITIONS ARE NOT AVAILABLE.

MNZ060>063-068>070-271700-
   Twin Cities Metro

CITY           SKY/WX    TMP DP  RH WIND       PRES   REMARKS
TWIN CITIES    PTSUNNY   56  42  59 NW20G35   29.82F
ST PAUL        PTSUNNY   56  43  61 NW17G29   29.82F
CRYSTAL        PTSUNNY   56  40  55 NW17G23   29.81F
BLAINE         PTSUNNY   57  45  62 W20G26    29.80F
LAKEVILLE      SUNNY     55  43  62 NW18G25   29.83F
EDEN PRAIRIE   MOSUNNY   59  43  55 W16G26    29.82F
LAKEVILLE      SUNNY     55  43  62 NW18G25   29.83F
SOUTH ST PAUL  MOSUNNY   56  41  57 NW14G28   29.81S
LAKE ELMO      PTSUNNY   55  43  62 NW17G26   29.81S
$$
MNZ001>005-007-008-013>017-022>024-027-028-271700-
   Northwest Minnesota

CITY           SKY/WX    TMP DP  RH WIND       PRES   REMARKS
BEMIDJI        CLOUDY    48  42  81 NW16      29.81S
HALLOCK        MOSUNNY   52  45  76 NW21      29.88F
ROSEAU         CLOUDY    50  45  81 NW10      29.82S
WARROAD        CLOUDY    48  43  81 NW18G26   29.82S
THIEF RVR FALL CLOUDY    49  42  77 NW21G26   29.87S
CROOKSTON      PTSUNNY   50  43  76 N21G26    29.90R
FOSSTON        CLOUDY    48  41  76 NW17G23   29.86S
DETROIT LAKES  CLOUDY    50  43  76 NW17G26   29.88F
MOORHEAD       SUNNY     55  41  58 NW20G25   29.91F
PARK RAPIDS    CLOUDY    50  40  68 NW18      29.82F
MAHNOMEN       CLOUDY    48  41  76 NW18G25   29.88R
$$
MNZ006-009>011-018-025>026-271700-
   North Central Minnesota

CITY           SKY/WX    TMP DP  RH WIND       PRES   REMARKS
BAUDETTE       LGT RAIN  47  44  90 NW17G24   29.78S
FLAG ISLAND    LGT RAIN  46  43  87 N18       29.80R
INTL FALLS     LGT RAIN  47  44  90 NW12      29.74R
WASKISH        DRIZZLE   48  45  87 NW10G16   29.79S
BIG FORK       LGT RAIN  48  45  87 NW5       29.75S
GRAND RAPIDS   LGT RAIN  48  44  86 NW23G29   29.76S
ORR            CLOUDY    46  43  87 NW12      29.69R FOG
COOK           DRIZZLE   46  45  93 NW9G16    29.71S
WALKER         CLOUDY    47  41  79 NW14G20   29.80R
$$
MNZ012-019>021-037-271700-
   Northeast Minnesota

CITY           SKY/WX    TMP DP  RH WIND       PRES   REMARKS
DULUTH         DRIZZLE   49  45  86 NW15G21   29.69R FOG
ELY            LGT RAIN  46  45  93 NW7G18    29.67R
HIBBING        LGT RAIN  47  44  90 NW14G24   29.71S
EVELETH        DRIZZLE   47  45  90 NW12G18   29.71R
DULUTH HARBOR  CLOUDY    54  46  76 NW14G23   29.71R
TWO HARBORS    PTSUNNY   54  48  82 NW5       29.65S
SILVER BAY     CLOUDY    52  45  76 NW9G18    29.62R
GRAND MARAIS     N/A     52  44  74 NW6       29.58R
G MARAIS ARPRT CLOUDY    45  39  81 NW10G21   29.57R
$$
MNZ029>031-032-039>041-046>048-054>057-064-271700-
   West Central Minnesota

CITY           SKY/WX    TMP DP  RH WIND       PRES   REMARKS
FERGUS FALLS   SUNNY     54  43  66 N17G26    29.92F
MORRIS         SUNNY     57  39  51 NW16G28   29.90F
ALEXANDRIA     SUNNY     54  42  64 NW20G25   29.88F
ELBOW LAKE     FAIR      52  41  67 W15G24    29.91S
WADENA         MOSUNNY   52  43  71 NW16G26   29.84F
GLENWOOD       SUNNY     54  43  66 NW21G29   29.88S
BENSON         SUNNY     59  37  44 N20       29.90F
ORTONVILLE     SUNNY     57  37  47 NW12      29.93F
MADISON          N/A     61  39  44 NW14      29.93F
WILLMAR        FAIR      57  43  58 NW14G24   29.90F
$$
MNZ033>034-036-042>043-049>051-058-059-271700-
   Central Minnesota

CITY           SKY/WX    TMP DP  RH WIND       PRES   REMARKS
ST CLOUD       PTSUNNY   54  43  66 NW17G25   29.83S
SAUK CENTRE    FAIR      54  41  62 NW18G25   29.86S
PAYNESVILLE    SUNNY     56  40  56 NW14G22   29.87F
AITKIN         MIX PCPN  52  43  71 W8G16     29.76S
PINE RIVER     CLOUDY    50  43  76 NW12G23   29.83S
BRAINERD       CLOUDY    50  42  74 NW14G23   29.80S
STAPLES        PTSUNNY   52  41  66 NW20G25   29.83S
LONG PRAIRIE   FAIR      52  41  66 W17G25    29.85S
LITTLE FALLS   CLOUDY    52  39  62 NW13G26   29.83S
LITCHFIELD     SUNNY     57  43  58 W13G20    29.87F
BUFFALO        SUNNY     55  41  59 W17G25    29.85F
MAPLE LAKE     SUNNY     56  44  64 W14G20    29.85F
HUTCHINSON     MOSUNNY   58  43  57 W17G23    29.88F
$$
MNZ037-044-045-052-053-271700-
   East Central Minnesota

CITY           SKY/WX    TMP DP  RH WIND       PRES   REMARKS
PRINCETON      CLOUDY    54  45  71 W15G24    29.81S
MORA           CLOUDY    50  41  71 NW18G24   29.79S
CAMBRIDGE      CLOUDY    55  43  62 W9G20     29.78S
MOOSE LAKE     CLOUDY    50  43  76 NW10G21   29.73R
HINCKLEY       CLOUDY    52  45  76 W7G16     29.76S
CLOQUET        CLOUDY    50  43  76 NW16G22   29.71S
MCGREGOR       CLOUDY    50  45  81 NW14G20   29.76S
$$
MNZ071>073-080-081-089-090-097-098-271700-
   Southwest Minnesota

CITY           SKY/WX    TMP DP  RH WIND       PRES   REMARKS
MONTEVIDEO     SUNNY     61  39  44 N14G21    29.93F
GRANITE FALLS  SUNNY     61  39  44 NW17G23   29.94S
CANBY          SUNNY     61  38  43 W9        29.95S
MARSHALL       SUNNY     59  36  42 NW18      29.93F
REDWOOD FALLS  SUNNY     59  37  44 NW20      29.91F
OLIVIA         SUNNY     59  39  47 NW15G22   29.89F
PIPESTONE      SUNNY     59  36  41 NW13      29.97S
WINDOM         SUNNY     61  34  36 W16       29.93F
WORTHINGTON    SUNNY     61  39  44 W17       29.95F
JACKSON        SUNNY     61  32  33 W15G21    29.94F
TRACY          SUNNY     62  37  39 NW13G20   29.94F
$$
MNZ065>067-074>077-082>085-091>093-271700-
   South Central Minnesota

CITY           SKY/WX    TMP DP  RH WIND       PRES   REMARKS
MANKATO        SUNNY     57  41  55 NW18      29.88F
ST JAMES       SUNNY     59  37  44 W14       29.92F
FAIRMONT       SUNNY     60  37  42 NW12      29.92F
GLENCOE        SUNNY     57  45  63 W17G24    29.86F
FARIBAULT      SUNNY     57  43  58 W14G20    29.86S
OWATONNA       SUNNY     57  39  51 W17       29.86F
WASECA         SUNNY     55  41  58 W16G24    29.89S
ALBERT LEA     SUNNY     59  37  44 NW13G18   29.88F
$$
MNZ078>079-086>088-094>096-271700-
   Southeast Minnesota

CITY           SKY/WX    TMP DP  RH WIND       PRES   REMARKS
ROCHESTER      SUNNY     57  41  55 W18G29    29.83F
RED WING       PTSUNNY   57  41  54 NW20G25   29.79F
STANTON        SUNNY     58  43  57 NW18G26   29.82F
DODGE CENTER   SUNNY     55  41  58 W18G29    29.84F
WINONA         PTSUNNY   57  41  54 W12G21    29.80S
AUSTIN         SUNNY     57  39  51 W20       29.86F
PRESTON        SUNNY     56  40  54 NW21G30   29.84S
$$
ABBREVIATIONS USED IN REMARKS
   TC - TEMPERATURES IN CELSIUS
  WCI - WIND CHILL INDEX
   HX - HEAT INDEX
  VSB - VISIBILITY
$$



USA.gov is the U.S. government's official web portal to all federal, state and local government web resources and services.